| time (UTC) | temp F | wind direction | speed MPH | gust MPH | rain 1hr in | rain 24hr in | rain mn in | humidity % | barometer mb |
| 20260506044035 | 64 | 293 | 0.0 | 3.0 | 0.00 | 0.01 | 0.01 | 99 | |
| 20260506043556 | 60 | 279 | 5.0 | 11.0 | 0.00 | 0.00 | 0.00 | 51 | |
| 20260506043024 | 64 | 338 | 0.0 | 4.0 | 0.00 | 0.01 | 0.01 | 99 | |
| 20260506042528 | 60 | 276 | 6.0 | 11.0 | 0.00 | 0.00 | 0.00 | 50 | |
| 20260506042033 | 64 | 0.0 | 0.0 | 0.00 | 0.01 | 0.01 | 99 | ||
| 20260506041535 | 60 | 271 | 6.0 | 13.0 | 0.00 | 0.00 | 0.00 | 53 | |
| 20260506041022 | 65 | 0.0 | 0.0 | 0.00 | 0.01 | 0.01 | 99 | ||
| 20260506040549 | 60 | 287 | 4.0 | 8.0 | 0.00 | 0.00 | 0.00 | 56 | |
| 20260506040049 | 65 | 0.0 | 0.0 | 0.00 | 0.01 | 0.01 | 99 | ||
| 20260506035536 | 60 | 287 | 4.0 | 8.0 | 0.00 | 0.00 | 0.00 | 55 | |
| 20260506035100 | 64 | 0.0 | 0.0 | 0.00 | 0.01 | 0.01 | 99 | ||
| 20260506034551 | 60 | 283 | 5.0 | 10.0 | 0.00 | 0.00 | 0.00 | 56 | |
| 20260506034109 | 63 | 0.0 | 0.0 | 0.00 | 0.01 | 0.01 | 99 | ||
| 20260506033537 | 59 | 293 | 5.0 | 11.0 | 0.00 | 0.00 | 0.00 | 58 | |
| 20260506033035 | 63 | 0.0 | 0.0 | 0.00 | 0.01 | 0.01 | 99 | ||
| 20260506032527 | 59 | 287 | 6.0 | 11.0 | 0.00 | 0.00 | 0.00 | 59 | |
| 20260506032024 | 64 | 0.0 | 0.0 | 0.00 | 0.01 | 0.01 | 99 | ||
| 20260506031535 | 60 | 276 | 5.0 | 11.0 | 0.00 | 0.00 | 0.00 | 60 | |
| 20260506031032 | 63 | 0.0 | 0.0 | 0.00 | 0.01 | 0.01 | 99 | ||
| 20260506030548 | 59 | 280 | 3.0 | 10.0 | 0.00 | 0.00 | 0.00 | 62 | |
| 20260506030023 | 63 | 0.0 | 0.0 | 0.00 | 0.01 | 0.01 | 99 | ||
| 20260506025539 | 59 | 273 | 5.0 | 11.0 | 0.00 | 0.00 | 0.00 | 61 | |
| 20260506025049 | 63 | 0.0 | 0.0 | 0.00 | 0.01 | 0.01 | 99 | ||
| 20260506024528 | 58 | 265 | 5.0 | 11.0 | 0.00 | 0.00 | 0.00 | 63 | |
| 20260506024117 | 64 | 0.0 | 0.0 | 0.00 | 0.01 | 0.01 | 99 | ||
| 20260506023556 | 58 | 271 | 4.0 | 9.0 | 0.00 | 0.00 | 0.00 | 62 | |
| 20260506023026 | 64 | 0.0 | 0.0 | 0.00 | 0.01 | 0.01 | 99 | ||
| 20260506022650 | 58 | 257 | 4.0 | 9.0 | 0.00 | 0.00 | 0.00 | 64 | |
| 20260506022034 | 64 | 0.0 | 0.0 | 0.00 | 0.01 | 0.01 | 99 | ||
| 20260506021519 | 57 | 269 | 4.0 | 10.0 | 0.00 | 0.00 | 0.00 | 65 | |
| 20260506021024 | 62 | 0.0 | 0.0 | 0.00 | 0.01 | 0.01 | 99 | ||
| 20260506020528 | 57 | 289 | 4.0 | 8.0 | 0.00 | 0.00 | 0.00 | 64 | |
| 20260506020034 | 62 | 0.0 | 3.0 | 0.00 | 0.01 | 0.01 | 99 | ||
| 20260506015519 | 57 | 293 | 4.0 | 10.0 | 0.00 | 0.00 | 0.00 | 64 | |
| 20260506015041 | 63 | 0.0 | 0.0 | 0.00 | 0.01 | 0.01 | 99 | ||
| 20260506014547 | 56 | 261 | 6.0 | 10.0 | 0.00 | 0.00 | 0.00 | 65 | |
| 20260506014030 | 63 | 0.0 | 0.0 | 0.00 | 0.01 | 0.01 | 99 | ||
| 20260506013520 | 56 | 319 | 3.0 | 6.0 | 0.00 | 0.00 | 0.00 | 66 | |
| 20260506013039 | 62 | 0.0 | 0.0 | 0.00 | 0.01 | 0.01 | 99 | ||
| 20260506012527 | 57 | 273 | 3.0 | 10.0 | 0.00 | 0.00 | 0.00 | 66 | |
| 20260506012026 | 61 | 0.0 | 0.0 | 0.00 | 0.01 | 0.01 | 99 | ||
| 20260506011520 | 57 | 300 | 3.0 | 7.0 | 0.00 | 0.00 | 0.00 | 64 | |
| 20260506011033 | 61 | 0.0 | 0.0 | 0.00 | 0.01 | 0.01 | 99 | ||
| 20260506010528 | 58 | 292 | 3.0 | 7.0 | 0.00 | 0.00 | 0.00 | 64 | |
| 20260506010023 | 61 | 0.0 | 0.0 | 0.00 | 0.01 | 0.01 | 99 | ||
| 20260506005519 | 57 | 326 | 2.0 | 5.0 | 0.00 | 0.00 | 0.00 | 66 | |
| 20260506005031 | 60 | 0.0 | 0.0 | 0.00 | 0.01 | 0.01 | 99 | ||
| 20260506004528 | 56 | 292 | 4.0 | 7.0 | 0.00 | 0.00 | 0.00 | 67 | |
| 20260506004020 | 60 | 0.0 | 0.0 | 0.00 | 0.01 | 0.01 | 99 | ||
| 20260506003520 | 57 | 292 | 4.0 | 8.0 | 0.00 | 0.00 | 0.00 | 68 | |
| 20260506003028 | 61 | 0.0 | 0.0 | 0.00 | 0.01 | 0.01 | 99 | ||
| 20260506002529 | 58 | 301 | 2.0 | 7.0 | 0.00 | 0.00 | 0.00 | 67 | |
| 20260506002038 | 59 | 0.0 | 0.0 | 0.00 | 0.01 | 0.01 | 99 | ||
| 20260506001520 | 56 | 273 | 1.0 | 3.0 | 0.00 | 0.00 | 0.00 | 74 | |
| 20260506001027 | 59 | 0.0 | 0.0 | 0.00 | 0.01 | 0.01 | 99 | ||
| 20260506000527 | 53 | 117 | 2.0 | 3.0 | 0.00 | 0.00 | 0.00 | 80 | |
| 20260506000033 | 60 | 0.0 | 0.0 | 0.00 | 0.01 | 0.01 | 99 | ||
| 20260505235519 | 53 | 124 | 1.0 | 3.0 | 0.00 | 0.00 | 0.00 | 80 | |
| 20260505235024 | 58 | 0.0 | 0.0 | 0.00 | 0.01 | 0.01 | 99 | ||
| 20260505234528 | 52 | 151 | 1.0 | 2.0 | 0.00 | 0.00 | 0.00 | 81 | |
| 20260505234034 | 56 | 0.0 | 0.0 | 0.00 | 0.01 | 0.01 | 99 | ||
| 20260505233521 | 50 | 156 | 1.0 | 2.0 | 0.00 | 0.00 | 0.00 | 84 | |
| 20260505233020 | 55 | 0.0 | 0.0 | 0.00 | 0.01 | 0.01 | 99 | ||
| 20260505232527 | 49 | 150 | 1.0 | 3.0 | 0.00 | 0.00 | 0.00 | 86 | |
| 20260505232048 | 52 | 0.0 | 0.0 | 0.00 | 0.01 | 0.01 | 99 | ||
| 20260505231521 | 49 | 161 | 1.0 | 2.0 | 0.00 | 0.00 | 0.00 | 88 | |
| 20260505231120 | 51 | 0.0 | 0.0 | 0.00 | 0.01 | 0.01 | 99 | ||
| 20260505230530 | 47 | 170 | 1.0 | 3.0 | 0.00 | 0.00 | 0.00 | 94 | |
| 20260505230025 | 49 | 0.0 | 0.0 | 0.00 | 0.01 | 0.01 | 99 | ||
| 20260505225520 | 46 | 174 | 1.0 | 2.0 | 0.00 | 0.00 | 0.00 | 97 | |
| 20260505225033 | 47 | 0.0 | 0.0 | 0.00 | 0.01 | 0.01 | 99 | ||
| 20260505224528 | 44 | 184 | 1.0 | 2.0 | 0.00 | 0.00 | 0.00 | 99 | |
| 20260505224021 | 46 | 0.0 | 0.0 | 0.00 | 0.01 | 0.01 | 99 | ||
| 20260505223519 | 43 | 176 | 1.0 | 3.0 | 0.00 | 0.00 | 0.00 | 99 | |
| 20260505223055 | 45 | 0.0 | 0.0 | 0.00 | 0.01 | 0.01 | 99 | ||
| 20260505222528 | 42 | 178 | 1.0 | 2.0 | 0.00 | 0.00 | 0.00 | 99 | |
| 20260505222102 | 44 | 0.0 | 0.0 | 0.00 | 0.01 | 0.01 | 99 | ||
| 20260505221542 | 42 | 189 | 0.0 | 1.0 | 0.00 | 0.00 | 0.00 | 99 | |
| 20260505221029 | 43 | 0.0 | 0.0 | 0.00 | 0.01 | 0.01 | 99 | ||
| 20260505220528 | 41 | 187 | 0.0 | 1.0 | 0.00 | 0.00 | 0.00 | 99 | |
| 20260505220035 | 43 | 0.0 | 0.0 | 0.00 | 0.01 | 0.01 | 99 | ||
| 20260505215605 | 41 | 0.0 | 0.0 | 0.00 | 0.00 | 0.00 | 99 | ||
| 20260505215024 | 42 | 0.0 | 0.0 | 0.00 | 0.01 | 0.01 | 99 | ||
| 20260505214528 | 40 | 198 | 0.0 | 1.0 | 0.00 | 0.00 | 0.00 | 99 | |
| 20260505214032 | 40 | 0.0 | 0.0 | 0.01 | 0.01 | 0.01 | 99 | ||
| 20260505213519 | 39 | 190 | 0.0 | 2.0 | 0.00 | 0.00 | 0.00 | 99 | |
| 20260505213025 | 39 | 0.0 | 0.0 | 0.01 | 0.01 | 0.01 | 99 | ||
| 20260505212528 | 38 | 188 | 1.0 | 2.0 | 0.00 | 0.00 | 0.00 | 99 | |
| 20260505212032 | 38 | 0.0 | 0.0 | 0.01 | 0.01 | 0.01 | 99 | ||
| 20260505211521 | 37 | 188 | 1.0 | 3.0 | 0.00 | 0.00 | 0.00 | 99 | |
| 20260505211037 | 37 | 0.0 | 0.0 | 0.01 | 0.01 | 0.01 | 99 | ||
| 20260505210527 | 37 | 189 | 1.0 | 1.0 | 0.00 | 0.00 | 0.00 | 99 | |
| 20260505210029 | 36 | 0.0 | 0.0 | 0.01 | 0.01 | 0.01 | 99 | ||
| 20260505205520 | 36 | 192 | 1.0 | 1.0 | 0.00 | 0.00 | 0.00 | 99 | |
| 20260505205036 | 36 | 0.0 | 0.0 | 0.01 | 0.01 | 0.01 | 99 | ||
| 20260505204527 | 36 | 0.0 | 0.0 | 0.00 | 0.00 | 0.00 | 99 | ||
| 20260505204023 | 36 | 0.0 | 0.0 | 0.00 | 0.00 | 0.00 | 99 | ||
| 20260505203519 | 36 | 209 | 1.0 | 2.0 | 0.00 | 0.00 | 0.00 | 99 | |
| 20260505203032 | 36 | 0.0 | 0.0 | 0.00 | 0.00 | 0.00 | 99 | ||
| 20260505202527 | 36 | 203 | 0.0 | 2.0 | 0.00 | 0.00 | 0.00 | 99 | |
| 20260505202042 | 35 | 0.0 | 0.0 | 0.00 | 0.00 | 0.00 | 99 | ||
| 20260505201520 | 35 | 0.0 | 0.0 | 0.00 | 0.00 | 0.00 | 99 | ||
| 20260505201031 | 35 | 0.0 | 0.0 | 0.00 | 0.00 | 0.00 | 99 | ||
| 20260505200528 | 35 | 0.0 | 0.0 | 0.00 | 0.00 | 0.00 | 99 | ||
| 20260505200101 | 35 | 0.0 | 0.0 | 0.00 | 0.00 | 0.00 | 99 | ||
| 20260505195520 | 36 | 189 | 1.0 | 2.0 | 0.00 | 0.00 | 0.00 | 99 | |
| 20260505195028 | 35 | 0.0 | 0.0 | 0.00 | 0.00 | 0.00 | 99 | ||
| 20260505194527 | 35 | 199 | 0.0 | 1.0 | 0.00 | 0.00 | 0.00 | 99 | |
| 20260505194034 | 35 | 0.0 | 0.0 | 0.00 | 0.00 | 0.00 | 99 | ||
| 20260505193520 | 35 | 181 | 1.0 | 2.0 | 0.00 | 0.00 | 0.00 | 99 | |
| 20260505193025 | 35 | 0.0 | 0.0 | 0.00 | 0.00 | 0.00 | 99 | ||
| 20260505192528 | 36 | 187 | 0.0 | 1.0 | 0.00 | 0.00 | 0.00 | 99 | |
| 20260505192031 | 36 | 0.0 | 0.0 | 0.00 | 0.00 | 0.00 | 99 | ||
| 20260505191519 | 36 | 178 | 0.0 | 1.0 | 0.00 | 0.00 | 0.00 | 99 | |
| 20260505191020 | 36 | 0.0 | 0.0 | 0.00 | 0.00 | 0.00 | 99 | ||
| 20260505190528 | 36 | 204 | 0.0 | 2.0 | 0.00 | 0.00 | 0.00 | 99 | |
| 20260505190028 | 37 | 0.0 | 0.0 | 0.00 | 0.00 | 0.00 | 99 | ||
| 20260505185519 | 36 | 196 | 0.0 | 1.0 | 0.00 | 0.00 | 0.00 | 99 | |
| 20260505185039 | 36 | 0.0 | 0.0 | 0.00 | 0.00 | 0.00 | 99 | ||
| 20260505184548 | 36 | 0.0 | 0.0 | 0.00 | 0.00 | 0.00 | 99 | ||
| 20260505184050 | 37 | 0.0 | 0.0 | 0.00 | 0.00 | 0.00 | 99 | ||
| 20260505183519 | 36 | 0.0 | 0.0 | 0.00 | 0.00 | 0.00 | 99 | ||
| 20260505183033 | 37 | 0.0 | 0.0 | 0.00 | 0.00 | 0.00 | 99 | ||
| 20260505182527 | 36 | 187 | 0.0 | 1.0 | 0.00 | 0.00 | 0.00 | 99 | |
| 20260505182023 | 37 | 0.0 | 0.0 | 0.00 | 0.00 | 0.00 | 99 | ||
| 20260505181523 | 36 | 206 | 0.0 | 1.0 | 0.00 | 0.00 | 0.00 | 99 | |
| 20260505181031 | 37 | 0.0 | 0.0 | 0.00 | 0.00 | 0.00 | 99 | ||
| 20260505180529 | 36 | 192 | 0.0 | 1.0 | 0.00 | 0.00 | 0.00 | 99 | |
| 20260505180023 | 37 | 0.0 | 0.0 | 0.00 | 0.00 | 0.00 | 99 | ||
| 20260505175520 | 36 | 184 | 0.0 | 1.0 | 0.00 | 0.00 | 0.00 | 98 | |
| 20260505175033 | 38 | 0.0 | 0.0 | 0.00 | 0.00 | 0.00 | 99 | ||
| 20260505174548 | 38 | 195 | 0.0 | 1.0 | 0.00 | 0.00 | 0.00 | 99 | |
| 20260505174035 | 38 | 0.0 | 0.0 | 0.00 | 0.00 | 0.00 | 99 | ||
| 20260505173541 | 38 | 191 | 0.0 | 1.0 | 0.00 | 0.00 | 0.00 | 99 | |
| 20260505173025 | 38 | 0.0 | 0.0 | 0.00 | 0.00 | 0.00 | 99 | ||
| 20260505172528 | 38 | 200 | 1.0 | 2.0 | 0.00 | 0.00 | 0.00 | 99 | |
| 20260505172032 | 38 | 0.0 | 0.0 | 0.00 | 0.00 | 0.00 | 99 | ||
| 20260505171542 | 38 | 212 | 1.0 | 2.0 | 0.00 | 0.00 | 0.00 | 99 | |
| 20260505171024 | 37 | 0.0 | 0.0 | 0.00 | 0.00 | 0.00 | 99 | ||
| 20260505170528 | 37 | 211 | 1.0 | 2.0 | 0.00 | 0.00 | 0.00 | 99 | |
| 20260505170033 | 37 | 0.0 | 0.0 | 0.00 | 0.00 | 0.00 | 99 | ||
| 20260505165519 | 37 | 200 | 0.0 | 1.0 | 0.00 | 0.00 | 0.00 | 98 | |
| 20260505165100 | 38 | 0.0 | 0.0 | 0.00 | 0.00 | 0.00 | 99 | ||
| 20260505164527 | 38 | 209 | 0.0 | 1.0 | 0.00 | 0.00 | 0.00 | 98 | |
| 20260505164027 | 38 | 0.0 | 0.0 | 0.00 | 0.00 | 0.00 | 99 | ||
| 20260505163522 | 38 | 193 | 1.0 | 2.0 | 0.00 | 0.00 | 0.00 | 98 | |
| 20260505163055 | 39 | 0.0 | 0.0 | 0.00 | 0.00 | 0.00 | 99 | ||
| 20260505162552 | 39 | 0.0 | 0.0 | 0.00 | 0.00 | 0.00 | 98 | ||
| 20260505162026 | 39 | 0.0 | 0.0 | 0.00 | 0.00 | 0.00 | 99 | ||
| 20260505161519 | 40 | 0.0 | 0.0 | 0.00 | 0.00 | 0.00 | 98 | ||
| 20260505161032 | 39 | 0.0 | 0.0 | 0.00 | 0.00 | 0.00 | 99 | ||
| 20260505160608 | 40 | 0.0 | 0.0 | 0.00 | 0.00 | 0.00 | 98 | ||
| 20260505153047 | 41 | 0.0 | 0.0 | 0.00 | 0.00 | 0.00 | 99 | ||
| 20260505152527 | 41 | 200 | 0.0 | 1.0 | 0.00 | 0.00 | 0.00 | 98 | |
| 20260505152035 | 41 | 0.0 | 0.0 | 0.00 | 0.00 | 0.00 | 99 | ||
| 20260505151520 | 42 | 0.0 | 0.0 | 0.00 | 0.00 | 0.00 | 98 | ||
| 20260505151024 | 41 | 0.0 | 0.0 | 0.00 | 0.00 | 0.00 | 99 | ||
| 20260505150533 | 41 | 219 | 1.0 | 2.0 | 0.00 | 0.00 | 0.00 | 98 | |
| 20260505140530 | 41 | 189 | 0.0 | 1.0 | 0.00 | 0.00 | 0.00 | 97 | |
| 20260505125023 | 43 | 0.0 | 0.0 | 0.00 | 0.01 | 0.01 | 99 | ||
| 20260505124527 | 43 | 202 | 1.0 | 2.0 | 0.00 | 0.00 | 0.00 | 96 | |
| 20260505124118 | 43 | 0.0 | 0.0 | 0.00 | 0.01 | 0.01 | 99 | ||
| 20260505123519 | 43 | 222 | 1.0 | 2.0 | 0.00 | 0.00 | 0.00 | 96 | |
| 20260505123021 | 42 | 0.0 | 0.0 | 0.00 | 0.01 | 0.01 | 99 | ||
| 20260505122528 | 43 | 196 | 0.0 | 1.0 | 0.00 | 0.00 | 0.00 | 95 | |
| 20260505122028 | 43 | 0.0 | 0.0 | 0.00 | 0.01 | 0.01 | 99 | ||
| 20260505121540 | 43 | 194 | 0.0 | 1.0 | 0.00 | 0.00 | 0.00 | 95 | |
| 20260505121036 | 43 | 0.0 | 0.0 | 0.00 | 0.01 | 0.01 | 99 | ||
| 20260505120530 | 44 | 199 | 0.0 | 1.0 | 0.00 | 0.00 | 0.00 | 95 | |
| 20260505120025 | 44 | 0.0 | 0.0 | 0.00 | 0.01 | 0.01 | 99 | ||
| 20260505115519 | 45 | 177 | 0.0 | 2.0 | 0.00 | 0.00 | 0.00 | 96 | |
| 20260505115035 | 44 | 0.0 | 0.0 | 0.00 | 0.01 | 0.01 | 99 | ||
| 20260505114532 | 44 | 203 | 1.0 | 1.0 | 0.00 | 0.00 | 0.00 | 96 | |
| 20260505113540 | 44 | 213 | 1.0 | 1.0 | 0.00 | 0.00 | 0.00 | 95 | |
| 20260505112548 | 44 | 186 | 1.0 | 2.0 | 0.00 | 0.00 | 0.00 | 94 | |
| 20260505111520 | 44 | 217 | 0.0 | 1.0 | 0.00 | 0.00 | 0.00 | 94 | |
| 20260505110527 | 44 | 205 | 1.0 | 2.0 | 0.00 | 0.00 | 0.00 | 92 | |
| 20260505101535 | 46 | 0.0 | 0.0 | 0.00 | 0.00 | 0.00 | 90 | ||
| 20260505101533 | 46 | 0.0 | 0.0 | 0.00 | 0.01 | 0.01 | 99 | ||
| 20260505100549 | 46 | 0.0 | 0.0 | 0.00 | 0.00 | 0.00 | 89 | ||
| 20260505095520 | 46 | 207 | 0.0 | 1.0 | 0.00 | 0.00 | 0.00 | 89 | |
| 20260505094528 | 47 | 0.0 | 0.0 | 0.00 | 0.00 | 0.00 | 88 | ||
| 20260505093530 | 48 | 0.0 | 0.0 | 0.00 | 0.01 | 0.01 | 99 | ||
| 20260505093520 | 47 | 0.0 | 0.0 | 0.00 | 0.00 | 0.00 | 87 | ||
| 20260505092536 | 48 | 0.0 | 0.0 | 0.00 | 0.01 | 0.01 | 99 | ||
| 20260505092531 | 48 | 247 | 0.0 | 1.0 | 0.00 | 0.00 | 0.00 | 86 | |
| 20260505091605 | 48 | 0.0 | 0.0 | 0.00 | 0.01 | 0.01 | 99 | ||
| 20260505091602 | 48 | 245 | 1.0 | 1.0 | 0.00 | 0.00 | 0.00 | 86 | |
| 20260505090613 | 49 | 0.0 | 0.0 | 0.00 | 0.01 | 0.01 | 99 | ||
| 20260505085542 | 49 | 0.0 | 0.0 | 0.00 | 0.01 | 0.01 | 99 | ||
| 20260505085540 | 48 | 239 | 1.0 | 2.0 | 0.00 | 0.00 | 0.00 | 85 | |
| 20260505084534 | 49 | 0.0 | 0.0 | 0.00 | 0.01 | 0.01 | 99 | ||
| 20260505083521 | 49 | 97 | 0.0 | 2.0 | 0.00 | 0.00 | 0.00 | 84 | |
| 20260505082532 | 50 | 0.0 | 0.0 | 0.00 | 0.01 | 0.01 | 99 | ||
| 20260505082529 | 49 | 0.0 | 0.0 | 0.00 | 0.00 | 0.00 | 84 | ||
| 20260505081535 | 50 | 0.0 | 0.0 | 0.00 | 0.01 | 0.01 | 99 | ||
| 20260505081521 | 50 | 245 | 0.0 | 1.0 | 0.00 | 0.00 | 0.00 | 82 | |
| 20260505080527 | 51 | 0.0 | 0.0 | 0.00 | 0.00 | 0.00 | 81 | ||
| 20260505080525 | 51 | 0.0 | 0.0 | 0.00 | 0.01 | 0.01 | 99 | ||
| 20260505075533 | 52 | 0.0 | 0.0 | 0.00 | 0.01 | 0.01 | 99 | ||
| 20260505075519 | 51 | 244 | 1.0 | 2.0 | 0.00 | 0.00 | 0.00 | 80 | |
| 20260505074527 | 52 | 241 | 1.0 | 2.0 | 0.00 | 0.00 | 0.00 | 77 | |
| 20260505074522 | 52 | 0.0 | 0.0 | 0.00 | 0.01 | 0.01 | 99 | ||
| 20260505073530 | 53 | 0.0 | 0.0 | 0.00 | 0.01 | 0.01 | 99 | ||
| 20260505073520 | 53 | 278 | 3.0 | 7.0 | 0.00 | 0.00 | 0.00 | 76 | |
| 20260505072527 | 53 | 270 | 4.0 | 7.0 | 0.00 | 0.00 | 0.00 | 76 | |
| 20260505072519 | 53 | 0.0 | 0.0 | 0.00 | 0.01 | 0.01 | 99 | ||
| 20260505071527 | 54 | 0.0 | 0.0 | 0.00 | 0.01 | 0.01 | 99 | ||
| 20260505071520 | 54 | 280 | 4.0 | 9.0 | 0.00 | 0.00 | 0.00 | 74 | |
| 20260505070535 | 55 | 0.0 | 0.0 | 0.00 | 0.01 | 0.01 | 99 | ||
| 20260505070528 | 54 | 290 | 5.0 | 9.0 | 0.00 | 0.00 | 0.00 | 73 | |
| 20260505065524 | 56 | 0.0 | 0.0 | 0.00 | 0.01 | 0.01 | 99 | ||
| 20260505065520 | 55 | 282 | 4.0 | 8.0 | 0.00 | 0.00 | 0.00 | 72 | |
| 20260505064532 | 58 | 0.0 | 0.0 | 0.00 | 0.01 | 0.01 | 99 | ||
| 20260505064528 | 55 | 269 | 3.0 | 6.0 | 0.00 | 0.00 | 0.00 | 70 | |
| 20260505063524 | 56 | 277 | 4.0 | 7.0 | 0.00 | 0.00 | 0.00 | 69 | |
| 20260505062528 | 56 | 277 | 3.0 | 7.0 | 0.00 | 0.00 | 0.00 | 68 | |
| 20260505061522 | 58 | 274 | 4.0 | 8.0 | 0.00 | 0.00 | 0.00 | 65 | |
| 20260505060528 | 59 | 277 | 3.0 | 7.0 | 0.00 | 0.00 | 0.00 | 64 | |
| 20260505060526 | 61 | 0.0 | 0.0 | 0.00 | 0.02 | 0.01 | 99 | ||
| 20260505055535 | 62 | 0.0 | 0.0 | 0.00 | 0.02 | 0.01 | 99 | ||
| 20260505055520 | 59 | 277 | 2.0 | 6.0 | 0.00 | 0.00 | 0.00 | 63 | |
| 20260505054527 | 59 | 273 | 5.0 | 9.0 | 0.00 | 0.00 | 0.00 | 63 | |
| 20260505054523 | 63 | 0.0 | 0.0 | 0.00 | 0.02 | 0.01 | 99 | ||
| 20260505053532 | 63 | 0.0 | 0.0 | 0.00 | 0.04 | 0.01 | 99 | ||
| 20260505053519 | 59 | 276 | 3.0 | 7.0 | 0.00 | 0.00 | 0.00 | 63 | |
| 20260505052527 | 60 | 276 | 2.0 | 6.0 | 0.00 | 0.00 | 0.00 | 61 | |
| 20260505052521 | 63 | 0.0 | 0.0 | 0.00 | 0.05 | 0.01 | 99 | ||
| 20260505051528 | 63 | 0.0 | 0.0 | 0.00 | 0.06 | 0.01 | 99 | ||
| 20260505051520 | 60 | 270 | 2.0 | 5.0 | 0.00 | 0.00 | 0.00 | 61 | |
| 20260505050537 | 63 | 0.0 | 0.0 | 0.00 | 0.06 | 0.01 | 99 | ||
| 20260505050528 | 60 | 278 | 4.0 | 9.0 | 0.00 | 0.00 | 0.00 | 60 |